Location: Central Falls
(41.8900°N, 71.3929°W)
Time: 11:13:36
(UTC+00:00)

A-11 Canister half - Pass Details

Date: 15 December 2023
Orbit: 1512 x 1687 km, 47.2° (Epoch: 20 February)

Event Time Altitude Azimuth Distance (km) Brightness Sun altitude
Rises 10:17:25 0° 292° (WNW) 4,854 - -19.4°
Reaches altitude 10° 10:21:26 10° 278° (W) 3,891 - -18.7°
Exits shadow 10:25:12 19° 258° (WSW) 3,262 10.2 -18.0°
Maximum altitude 10:28:24 22° 233° (SW) 3,077 10.2 -17.5°
Drops below altitude 10° 10:35:28 10° 188° (S) 3,937 11.2 -16.2°
Sets 10:39:38 0° 174° (S) 4,927 12.0 -15.5°
